Wind_Speed
20 19 19 17 16 13 11 10 12 14 18 20 21 22 20 19 17 16 15 14 15 17 19 19 19 18 16 14 13 13 12 13 13 13 13 14 14 13 13 12 12 11 9 9 8 8 8 9 9 10 10 10 10 10 10 10 10 10 9 9 9 8 7 6 6 5 4 3 3 3 2 3 3 3 3 3 3 3 2 2 1 2 3 4 5
19 18 18 16 15 14 11 11 13 15 18 20 22 23 21 20 18 16 15 15 16 18 19 20 19 18 17 14 13 12 12 12 13 13 13 14 14 14 13 12 12 11 9 9 8 8 8 8 9 9 10 10 10 11 11 11 10 10 10 9 9 8 7 6 6 5 4 3 3 3 3 3 3 3 2 2 2 2 3 2 1 1 2 3 4
18 18 19 17 16 15 12 12 14 16 19 21 22 24 24 22 20 18 16 16 18 19 20 21 20 19 17 15 13 12 12 12 12 13 13 14 14 14 13 12 12 11 9 8 8 7 8 8 8 9 9 10 10 11 11 10 10 10 10 9 9 8 8 6 5 5 4 3 3 3 3 3 4 3 2 3 3 3 3 3 2 1 1 3 4
19 19 20 18 17 16 14 14 16 18 20 21 23 25 25 25 22 20 19 18 19 21 22 21 21 20 18 16 14 12 12 12 12 12 13 14 15 14 13 12 11 10 8 7 7 7 7 7 7 8 8 9 10 10 10 10 10 10 9 9 9 9 8 7 5 5 4 3 3 3 3 4 4 4 2 2 3 3 3 3 2 2 1 2 3
19 20 20 18 18 17 16 15 17 19 21 22 24 25 26 25 24 22 20 20 21 22 22 22 21 20 18 16 15 13 12 12 12 13 14 15 15 15 13 12 11 10 8 7 6 6 6 7 7 7 8 9 9 10 9 10 10 9 9 9 9 9 8 7 5 4 4 3 4 4 4 4 4 4 3 3 2 3 3 3 3 2 1 1 2
19 20 20 19 18 17 17 17 18 20 21 22 24 25 26 26 25 22 21 21 21 22 22 22 21 20 19 17 15 14 12 12 12 13 14 15 16 15 14 12 10 9 7 6 5 5 6 6 7 7 8 9 9 9 10 10 10 10 10 9 9 9 8 7 5 5 4 3 3 4 4 4 4 4 3 3 3 3 3 3 3 2 1 0 1
21 21 21 20 19 18 19 20 21 21 21 23 25 26 27 27 25 21 20 20 21 22 22 22 21 20 18 17 15 14 13 12 12 13 15 16 16 15 14 12 10 8 7 5 5 5 5 6 7 7 7 8 9 9 9 9 9 9 10 9 9 8 8 7 5 5 4 3 4 4 5 5 4 4 2 2 3 3 4 4 3 3 2 1 1
23 22 22 20 20 21 21 22 22 21 22 24 27 28 29 28 25 21 20 20 21 22 22 22 22 20 18 16 15 14 14 13 13 13 15 16 16 15 14 12 10 8 6 5 4 4 5 6 8 8 7 7 8 8 8 8 8 9 9 9 8 8 7 7 5 5 4 4 4 4 5 5 5 4 2 2 2 3 4 4 4 4 3 2 1
24 22 22 22 22 23 22 22 21 22 24 26 29 29 30 28 24 21 21 21 21 22 22 22 21 19 17 16 15 15 15 15 14 14 15 16 16 15 14 12 10 8 6 5 4 3 4 6 8 8 7 5 6 8 8 8 8 8 9 9 8 7 7 6 5 4 4 4 4 4 5 5 5 5 3 2 2 3 4 4 4 4 4 3 2
24 23 23 23 23 23 23 23 23 25 26 28 30 30 30 26 22 21 21 21 22 22 22 22 21 18 17 16 15 16 16 16 15 14 16 16 16 15 14 13 10 8 7 5 4 3 4 5 8 9 7 5 5 7 7 8 8 9 9 9 8 7 6 6 5 4 4 4 4 4 5 6 6 5 3 2 2 2 3 4 4 4 4 4 3
25 24 24 24 25 25 25 25 25 26 27 29 30 30 27 22 20 20 20 21 22 22 23 22 20 18 16 16 16 16 16 16 16 15 16 17 17 16 14 13 11 9 7 5 4 3 3 5 8 8 7 5 5 6 8 8 9 10 10 9 8 7 6 6 5 4 4 3 4 4 5 5 5 4 3 2 1 2 3 4 4 4 4 4 4
25 25 26 26 26 26 26 25 25 26 27 28 27 25 22 19 19 20 20 21 22 22 23 22 20 18 17 16 16 16 16 16 16 16 16 16 17 16 15 13 11 10 7 5 4 3 2 5 7 8 7 6 6 7 8 9 9 10 10 10 9 8 7 6 4 3 3 3 3 3 4 5 4 3 3 2 1 2 2 3 4 4 4 4 4
26 26 26 26 26 26 25 25 25 26 26 24 21 19 18 18 18 19 20 22 22 23 22 21 19 18 17 17 16 16 16 16 16 17 16 17 17 16 15 13 12 10 7 6 4 3 2 4 6 7 8 7 7 7 8 9 10 10 10 10 10 9 7 6 5 4 3 2 2 2 3 4 3 3 3 2 2 2 2 3 4 4 4 4 5
27 26 27 26 26 25 24 24 25 24 23 20 18 17 17 17 18 19 21 22 22 22 22 21 19 18 17 17 16 16 16 16 16 17 17 17 17 16 15 14 13 11 8 6 4 3 2 3 4 6 8 8 8 7 7 8 10 10 10 10 9 9 8 6 5 4 3 2 2 2 3 3 3 4 3 3 3 3 3 3 4 4 4 4 4
27 28 28 27 26 25 24 24 24 22 20 18 17 17 17 17 19 20 21 22 22 22 21 20 18 17 17 17 16 16 15 16 16 16 17 17 17 16 15 14 13 11 8 6 4 3 2 2 3 5 8 9 8 8 7 8 10 10 10 9 8 8 8 6 5 4 4 2 2 3 3 3 4 4 4 4 3 3 4 4 5 5 5 5 4
28 29 29 28 26 26 25 25 23 21 18 17 17 16 16 18 20 21 22 22 22 21 21 19 18 17 17 17 16 16 16 16 16 16 17 17 17 16 15 15 13 10 8 6 4 2 1 1 3 4 7 9 9 9 8 8 10 10 10 9 8 7 7 6 5 4 4 3 3 4 4 3 4 5 5 5 4 4 5 5 6 6 6 6 6
29 29 29 28 28 27 27 26 23 19 17 16 16 16 17 19 21 22 23 22 21 21 20 18 17 17 17 16 16 16 16 16 16 16 16 17 17 16 15 14 13 10 8 6 4 1 1 2 3 5 7 9 10 11 10 10 10 11 10 9 8 8 7 6 5 4 4 4 4 4 4 4 4 5 6 6 6 5 5 6 6 7 7 7 7
28 29 29 28 28 28 27 25 22 18 17 16 16 17 19 21 22 23 22 21 21 20 19 18 17 16 16 16 16 16 16 16 16 16 16 17 16 16 15 14 12 9 7 6 3 2 3 4 4 4 7 9 11 12 12 11 11 12 12 11 10 9 8 8 7 6 6 5 5 5 5 5 5 5 6 7 7 6 6 6 7 7 8 8 8
27 28 29 29 28 26 25 23 21 18 17 17 17 19 21 22 23 22 20 19 20 19 18 16 15 15 15 16 16 16 16 16 16 16 16 16 16 16 15 13 12 10 8 7 5 5 6 9 8 5 6 10 11 12 13 13 12 12 12 13 12 11 10 9 9 8 8 7 6 6 6 6 7 7 7 7 7 7 7 7 7 7 8 8 9
28 28 27 27 25 23 23 22 20 19 18 18 19 21 22 23 22 19 18 19 18 17 16 15 15 15 15 16 15 15 16 16 16 16 16 15 15 15 14 13 13 11 9 8 7 7 7 9 11 8 7 10 12 13 14 14 14 13 13 13 13 12 12 11 10 10 9 9 8 7 7 8 8 8 8 8 8 7 7 7 7 8 8 9 9
28 26 26 24 23 22 21 21 21 19 19 20 21 22 23 22 19 17 18 18 17 16 15 15 15 15 15 15 14 14 15 15 15 15 15 15 15 15 14 14 13 12 10 10 8 7 6 7 9 8 8 11 12 14 15 15 15 14 14 13 14 14 13 13 12 11 11 11 10 9 9 9 9 9 10 10 9 8 8 7 8 8 8 9 9
28 26 23 22 21 21 21 21 21 21 21 22 23 23 23 20 17 17 17 17 17 15 15 14 14 14 14 14 14 13 13 13 13 13 14 14 15 15 15 14 13 12 11 10 10 8 7 7 7 8 10 12 13 14 15 15 16 15 15 14 14 14 14 14 13 13 12 12 12 11 10 10 10 11 11 11 10 10 9 8 8 8 9 9 9
26 23 21 20 21 20 22 23 23 23 23 23 23 23 21 18 17 17 18 17 16 15 15 14 13 13 13 14 13 12 12 12 12 12 13 14 15 15 15 14 13 12 12 12 11 11 10 8 9 11 12 13 13 13 14 15 16 16 15 14 15 15 16 16 15 14 14 13 13 12 11 11 12 12 12 12 12 12 11 10 10 9 9 9 9
22 20 20 20 21 23 23 24 24 24 24 23 23 22 19 17 17 17 18 17 15 15 14 13 12 13 13 13 12 12 11 11 11 11 12 13 15 16 15 15 14 13 13 14 14 14 13 9 9 12 12 13 13 11 13 16 16 16 15 15 15 16 17 17 16 16 15 14 14 12 11 12 13 13 13 13 14 14 13 13 12 11 10 9 8
24 22 21 21 22 24 24 23 23 24 24 23 23 20 18 16 17 18 17 15 14 13 12 12 12 13 13 13 12 11 10 10 10 11 12 13 15 16 16 15 15 14 14 14 14 14 11 9 10 13 13 13 12 11 14 15 16 16 15 16 16 17 17 17 17 17 16 14 14 13 12 13 14 14 14 15 15 15 15 15 15 13 11 10 9
27 25 23 23 23 23 24 23 23 24 24 23 22 18 16 17 17 17 15 14 13 12 11 12 13 14 14 14 13 11 10 9 10 11 12 13 14 15 16 16 15 14 14 12 11 9 9 10 12 14 13 13 12 12 13 14 15 16 17 17 16 16 17 18 18 18 16 14 14 14 14 14 14 15 15 15 15 16 16 16 16 15 14 12 11
28 27 26 24 25 24 24 25 25 25 24 22 20 17 16 16 16 14 13 13 13 12 10 11 13 13 14 13 13 11 11 10 10 11 11 12 13 15 16 16 16 15 14 11 9 8 10 12 13 13 12 13 13 12 13 14 15 17 18 17 16 15 16 18 18 17 15 14 14 15 15 15 15 15 15 16 16 16 16 16 17 16 15 14 14
31 31 29 28 27 27 27 28 27 25 22 20 18 17 16 16 14 12 12 12 12 11 10 11 12 13 13 13 14 13 12 11 11 11 11 11 12 14 16 16 16 15 13 11 9 9 10 11 11 12 12 12 13 13 13 14 15 17 17 16 15 15 16 17 17 16 15 14 15 16 16 15 15 15 15 15 16 16 16 17 17 17 16 16 15
35 34 31 30 30 30 31 29 26 23 20 19 17 17 17 16 15 13 12 12 12 12 11 13 13 12 13 13 14 14 13 12 11 10 10 10 11 13 15 15 15 15 13 11 10 10 10 10 11 11 12 13 13 13 13 14 15 16 17 16 15 14 15 16 16 15 14 14 15 16 16 16 15 15 15 15 16 16 16 17 17 17 17 17 17
32 31 31 32 31 29 30 27 23 21 19 18 18 18 17 17 15 13 13 13 13 13 13 14 14 13 13 14 16 15 14 13 11 11 11 11 11 13 13 14 14 14 13 11 10 10 10 11 11 12 13 13 12 12 12 13 14 15 16 15 13 13 14 14 15 15 14 14 15 16 16 16 16 16 15 15 15 15 16 16 17 17 17 17 18
28 26 30 35 30 24 24 22 19 19 18 18 18 18 17 15 14 14 15 14 13 13 14 16 15 15 15 15 17 17 15 13 12 12 12 12 11 12 12 12 12 12 12 12 11 11 11 11 12 13 12 12 11 11 11 11 12 13 13 12 11 11 12 12 12 13 13 14 16 16 16 16 16 16 16 16 16 16 16 16 17 18 18 18 19
17 20 26 29 23 18 17 16 16 18 17 17 17 17 16 14 14 15 15 15 14 14 15 16 16 17 17 16 17 16 15 13 13 13 13 12 12 11 12 11 12 12 12 12 11 11 11 12 12 12 11 10 10 10 10 10 10 11 11 11 11 11 11 11 11 12 13 15 16 16 15 15 15 16 16 16 16 16 16 16 16 17 17 18 19
4 8 14 18 16 14 13 12 14 17 17 17 17 17 15 14 14 15 14 14 13 15 16 16 16 17 16 15 15 15 15 14 14 14 14 13 12 12 12 13 13 13 12 11 11 11 12 12 12 11 10 10 10 9 9 9 9 9 10 10 11 11 11 10 11 12 13 15 15 15 14 14 15 15 15 15 16 16 16 16 16 16 16 17 18
14 10 7 7 11 12 10 9 11 14 15 16 16 14 13 13 13 14 13 13 14 15 16 16 16 15 14 15 15 15 15 15 15 15 15 14 14 14 14 14 13 12 11 11 11 11 12 11 10 10 10 10 9 9 8 8 8 8 9 9 10 10 10 10 11 12 12 13 13 14 14 15 15 15 15 15 16 16 16 15 15 14 13 14 16
29 24 17 8 3 6 6 6 8 11 13 17 17 13 13 13 12 12 12 13 15 15 16 17 16 15 15 16 16 16 16 16 16 16 16 16 15 15 15 14 13 12 11 11 11 11 11 10 9 10 10 9 9 9 8 7 7 7 8 8 8 8 9 9 10 10 10 10 11 13 15 15 14 14 14 14 14 14 14 14 15 13 12 13 14
25 24 22 17 11 7 8 6 3 6 10 13 12 9 10 12 12 12 12 13 15 15 15 16 15 15 16 16 16 17 16 16 16 17 17 17 17 17 16 15 13 12 11 11 12 12 10 9 9 10 10 9 9 8 6 5 6 6 6 7 7 8 8 9 10 9 9 9 9 12 14 13 12 12 12 12 11 11 12 12 13 13 13 14 14
14 15 16 14 13 13 14 10 4 4 6 6 6 4 6 8 10 12 12 13 14 13 14 14 14 14 15 15 16 16 17 16 17 18 18 18 17 16 16 15 13 11 11 12 12 12 10 10 10 10 9 9 9 7 6 5 5 5 6 6 6 6 7 8 9 9 9 8 7 9 12 11 10 9 9 9 8 8 9 9 11 12 13 13 14
8 9 9 7 7 9 10 9 7 5 4 5 6 4 5 7 9 11 12 13 13 13 13 13 14 14 15 16 17 18 18 18 19 19 18 17 17 16 14 13 12 11 12 12 13 12 11 11 10 10 9 9 8 7 6 5 4 5 6 7 6 6 6 6 7 8 8 7 6 7 10 9 9 8 7 7 6 5 6 7 8 10 11 12 13
4 5 5 3 1 4 6 6 7 5 4 7 8 5 7 9 10 10 11 12 13 14 14 14 15 16 17 18 19 20 20 19 19 18 17 17 17 15 13 12 11 11 12 13 13 12 12 11 10 10 9 9 8 7 6 5 5 5 6 7 7 6 6 6 6 7 7 7 7 6 8 8 8 7 6 6 6 6 6 7 8 9 10 11 11
0 1 2 1 1 3 4 4 6 6 6 8 7 5 5 8 9 9 9 10 12 14 15 16 16 17 19 19 20 20 20 19 19 18 17 17 17 15 13 12 11 12 13 13 13 12 11 10 10 10 10 9 8 7 6 6 5 6 6 7 8 8 8 7 6 7 7 7 7 6 7 8 8 7 6 6 7 8 8 8 9 10 10 10 11
2 3 3 3 3 4 5 5 6 6 7 7 7 5 4 6 8 9 9 10 12 14 15 16 17 18 19 19 19 20 20 19 18 18 17 17 17 15 13 13 13 13 13 13 13 12 11 10 10 10 10 9 9 8 7 7 7 6 7 7 8 8 8 8 7 8 8 8 8 8 7 8 8 8 7 7 7 8 9 9 10 10 11 11 11
4 4 5 5 6 6 7 7 7 7 7 6 7 7 6 6 7 8 10 11 13 14 15 16 17 17 18 18 18 19 19 18 18 18 17 17 16 15 14 13 13 14 13 13 12 12 11 10 10 10 10 10 10 9 8 8 8 8 7 8 8 9 8 8 8 9 10 10 10 10 9 9 9 9 8 8 8 9 10 10 11 11 11 11 12
7 7 7 7 8 8 8 8 8 8 7 7 7 7 7 8 8 10 11 13 14 15 16 17 17 17 17 17 18 19 19 18 18 18 17 17 16 15 14 13 13 14 14 13 13 12 12 11 11 10 10 10 10 9 9 9 9 9 9 9 9 9 9 9 9 10 11 11 11 10 10 10 10 10 10 9 10 11 12 12 13 12 12 13 13
9 9 10 9 10 10 10 10 9 9 9 9 9 9 9 9 10 12 13 15 16 17 17 17 17 16 16 16 17 18 19 19 19 18 17 17 16 15 14 13 14 14 14 14 13 13 12 12 11 11 10 10 10 10 10 10 10 10 10 10 10 10 10 10 10 10 11 11 11 10 10 10 10 11 11 11 12 12 13 14 14 14 14 15 15
11 12 12 12 12 12 12 12 11 11 11 11 11 11 11 11 12 13 14 16 18 18 18 17 16 16 16 17 16 16 16 18 19 18 18 17 16 14 13 13 13 14 14 14 14 13 13 13 12 12 11 10 10 10 10 11 11 11 11 10 10 10 10 11 10 10 11 11 10 10 9 10 11 11 11 12 12 13 14 14 14 15 16 16 15
12 12 13 14 14 15 15 14 13 13 12 12 12 12 12 12 13 14 15 16 17 17 17 17 17 17 19 18 17 16 16 17 18 18 18 17 16 14 13 13 13 13 14 15 14 14 14 14 13 12 11 11 11 11 11 11 11 11 11 11 10 10 10 10 10 10 10 10 10 9 9 10 11 12 12 12 13 13 14 14 14 15 16 16 16
12 12 13 15 16 16 16 16 15 15 14 14 13 13 14 13 14 14 15 15 15 15 16 17 19 20 21 20 19 18 18 18 19 19 19 17 16 14 14 14 14 14 15 15 15 15 14 13 12 12 11 11 11 11 11 11 11 11 11 11 11 10 10 10 10 10 10 10 10 10 10 10 11 12 12 12 12 13 14 14 14 14 15 16 16
12 12 14 16 17 17 17 17 16 16 15 15 14 14 14 14 14 14 14 14 14 15 16 17 21 23 23 22 21 20 20 20 20 20 19 18 16 15 15 15 14 14 15 15 14 14 13 12 12 11 11 11 11 11 11 11 11 11 11 11 11 11 11 11 10 10 10 10 11 11 11 11 12 12 13 13 13 13 13 14 14 15 15 15 15
13 13 15 16 17 17 17 17 17 16 15 15 15 15 14 13 12 12 13 13 14 15 16 18 22 23 23 23 23 22 21 21 20 20 20 18 17 17 16 16 15 15 14 14 14 14 13 12 12 12 12 11 11 11 12 12 12 12 12 12 12 12 11 11 11 11 11 11 12 13 12 12 13 13 13 14 14 13 14 14 15 15 14 15 15
15 14 16 17 17 18 18 17 17 17 16 16 16 15 15 13 11 11 12 14 15 16 17 20 22 23 23 24 23 22 22 21 20 20 20 19 19 18 18 16 15 14 13 13 14 14 14 13 13 13 13 12 12 13 13 14 14 14 14 14 13 13 12 12 12 12 12 12 13 14 14 14 14 14 14 14 14 14 14 14 15 15 15 15 15
16 15 16 17 18 19 18 18 17 17 16 16 16 17 17 15 13 12 13 14 16 17 19 22 23 23 23 23 22 22 22 21 20 20 20 20 20 19 17 15 14 13 13 13 14 14 15 15 14 14 14 14 14 15 15 16 16 16 16 15 15 14 14 14 14 14 14 14 14 15 15 15 15 15 15 15 14 14 14 14 15 15 15 15 16
Wind_Direction
266 268 270 270 265 267 281 294 301 304 310 316 321 323 317 314 315 311 308 311 311 311 312 314 317 320 323 327 328 326 325 328 332 335 338 336 335 337 341 341 334 326 320 320 322 326 330 337 341 341 340 337 333 332 332 335 339 342 343 348 354 358 8 17 23 31 34 28 19 354 325 299 281 263 234 229 230 208 197 170 124 84 65 51 45
265 268 268 267 264 267 279 289 294 298 305 311 316 322 320 314 313 311 307 308 309 309 311 314 316 318 321 324 324 323 323 327 331 334 335 333 332 334 339 339 330 323 319 319 322 324 329 335 339 340 340 336 333 333 334 338 342 345 348 352 355 357 6 17 22 28 29 18 15 1 330 304 287 277 249 231 235 216 203 185 154 108 79 67 55
261 262 261 261 262 266 273 282 288 294 301 305 310 316 320 318 312 309 306 306 307 308 310 313 314 316 318 320 322 321 322 326 328 331 332 329 329 333 337 336 327 321 319 319 322 325 328 331 335 338 338 336 334 335 338 341 346 349 351 355 355 358 4 14 21 24 24 14 7 357 339 316 300 289 252 212 210 210 207 199 190 162 94 75 61
259 260 260 260 260 264 269 276 284 291 297 300 305 310 315 318 314 307 303 304 305 306 308 310 311 313 315 318 320 320 321 323 325 328 328 326 327 332 335 334 324 319 317 319 324 327 328 329 330 334 337 338 337 338 342 345 349 352 354 357 357 0 5 10 18 23 18 7 358 346 339 326 312 298 269 235 219 217 216 212 210 195 146 85 69
259 259 259 258 259 263 267 273 280 286 292 296 301 305 309 313 312 305 300 299 300 302 304 306 309 310 313 316 317 317 320 319 321 325 325 325 328 331 334 331 322 315 313 317 326 329 328 327 326 331 340 342 341 341 343 347 352 353 356 359 359 2 6 7 12 21 18 3 351 339 335 330 324 313 296 282 257 243 236 229 226 218 197 96 76
258 257 258 260 261 265 269 272 276 280 286 292 297 300 303 308 309 302 296 296 296 299 300 304 306 308 311 313 313 313 315 315 318 323 324 324 328 330 330 327 317 310 309 317 327 329 327 325 323 330 344 346 342 343 346 349 353 355 358 359 359 3 6 7 8 13 16 5 349 337 333 328 328 321 296 275 256 244 240 240 242 242 235 160 62
257 258 260 263 265 269 271 272 276 280 285 291 294 296 299 304 306 299 294 293 293 296 298 301 303 306 308 309 309 310 310 312 316 321 322 323 327 328 325 321 312 305 303 312 323 327 324 321 319 323 342 348 341 344 349 350 353 356 358 359 359 3 6 6 8 12 13 6 350 340 333 326 326 323 296 269 253 241 237 237 241 248 249 259 3
259 260 260 263 266 269 270 272 277 282 287 289 291 293 296 300 301 295 292 291 291 293 295 298 301 303 305 305 306 308 307 309 316 320 321 321 325 325 320 315 307 298 294 299 314 322 320 315 313 317 335 346 339 342 350 350 353 358 357 356 356 1 6 6 8 13 11 1 352 343 335 325 323 321 302 274 256 244 237 234 235 241 245 250 283
258 258 259 261 264 267 269 272 277 281 284 286 288 290 293 295 294 290 288 287 287 289 292 295 298 302 303 302 303 304 305 309 315 318 318 318 321 321 315 310 300 290 284 286 299 313 313 311 312 314 327 342 339 340 348 351 353 356 354 352 354 359 5 7 11 17 10 359 351 341 334 327 323 321 308 285 264 256 249 241 238 240 243 245 246
253 255 259 260 263 265 267 270 274 278 281 283 284 286 289 289 285 284 284 283 284 286 290 294 298 302 301 299 300 301 304 308 313 315 315 315 317 316 310 304 295 284 278 278 282 298 307 310 313 311 321 339 338 338 345 351 353 351 348 348 352 357 4 9 15 21 15 1 353 344 334 326 320 317 307 288 263 266 267 254 247 246 247 250 250
252 255 258 260 261 263 265 268 273 277 280 282 283 283 283 280 277 279 279 279 282 286 290 295 299 300 297 295 296 298 301 305 310 311 311 312 313 311 305 298 291 283 274 270 268 278 301 310 311 308 318 333 335 339 346 350 350 347 343 342 346 355 2 9 15 20 17 6 356 344 331 325 318 311 305 289 251 252 274 265 253 253 254 257 259
254 255 257 259 260 262 265 269 274 278 281 282 280 277 274 272 273 275 275 278 281 286 290 294 298 297 292 291 292 295 298 301 305 306 307 307 307 305 299 293 288 282 270 262 258 260 290 309 309 305 313 328 336 344 348 346 345 344 340 337 341 350 357 3 9 17 21 9 351 335 328 323 311 301 300 290 254 232 252 263 255 251 256 260 261
256 256 258 259 261 263 267 272 275 277 278 276 271 268 267 268 271 271 273 276 280 285 290 293 295 292 288 287 289 292 294 297 300 300 302 302 302 299 294 289 285 278 266 255 249 246 271 306 307 302 309 322 337 347 348 342 339 340 336 334 338 343 348 354 359 5 14 3 336 318 317 315 302 293 292 288 269 239 233 246 248 243 247 255 258
258 260 261 261 262 265 270 274 275 274 271 266 264 264 265 267 267 268 271 274 279 284 289 292 292 287 284 283 285 287 290 293 295 296 297 298 297 294 289 286 283 275 261 246 234 228 248 296 301 299 307 318 332 341 343 336 332 334 334 333 336 338 340 344 350 352 353 338 305 290 293 303 300 290 281 275 262 244 231 234 238 236 236 245 254
262 264 264 264 264 268 272 273 272 269 263 260 261 261 262 263 264 266 270 273 279 285 289 291 288 283 281 280 282 284 287 290 292 292 292 293 292 289 286 284 282 272 256 235 214 208 228 289 298 296 302 310 320 328 332 329 325 327 331 331 331 332 330 333 337 336 331 311 283 273 278 292 300 294 281 269 253 241 231 230 234 234 231 233 243
264 265 264 265 266 268 269 270 269 264 258 257 257 257 257 258 262 266 269 275 281 286 289 288 284 280 278 278 280 283 285 287 287 287 289 290 288 286 283 282 281 268 249 228 201 191 207 296 295 286 294 302 308 313 318 320 319 320 322 324 323 321 317 318 321 318 312 298 278 269 272 283 296 297 286 273 256 240 232 228 231 233 232 229 232
264 264 264 264 264 264 264 266 266 259 254 253 252 251 253 257 261 266 270 278 285 288 287 285 282 279 279 280 282 283 284 284 283 283 285 286 285 283 280 280 280 265 242 221 192 184 279 318 309 284 282 292 299 302 306 311 314 315 315 314 314 310 304 302 300 294 288 282 272 266 265 268 279 289 288 279 266 250 237 231 230 232 233 232 230
261 262 262 261 260 260 261 261 258 251 247 246 245 248 252 258 261 266 274 283 287 288 286 284 281 280 281 282 283 283 283 281 279 279 281 282 282 280 277 277 274 259 238 224 213 237 280 292 305 298 285 283 289 295 298 304 309 311 311 309 308 305 297 290 284 276 270 266 261 259 257 256 261 271 279 280 273 261 247 238 232 232 232 233 232
257 258 259 259 258 256 255 253 250 243 241 240 242 249 254 258 262 270 280 286 287 286 286 284 283 281 281 281 280 280 279 277 276 276 278 279 279 277 274 271 266 255 240 238 247 261 278 284 285 287 288 281 280 286 291 297 303 307 307 306 304 301 293 284 276 270 264 259 254 253 251 250 252 257 266 272 272 267 257 248 240 237 235 234 234
255 256 259 258 253 249 247 244 242 238 236 239 245 250 255 259 266 276 282 284 286 286 287 285 283 281 280 278 277 277 277 276 274 275 279 278 276 273 268 263 261 256 246 246 254 262 273 286 290 288 281 278 273 276 284 291 298 302 302 299 298 296 291 282 274 268 263 259 253 248 245 245 247 251 258 263 268 269 264 258 250 244 239 237 236
258 257 259 254 245 240 238 236 234 233 235 241 247 251 255 261 269 277 280 282 287 288 287 285 282 279 275 274 273 274 275 275 274 276 277 275 270 266 262 258 257 256 256 258 263 268 269 272 288 291 275 272 269 269 277 285 293 298 297 294 293 291 287 281 275 269 264 260 254 248 244 243 245 247 250 256 263 267 267 262 256 250 245 241 239
263 262 259 246 233 228 227 228 229 231 236 241 246 250 254 262 270 274 278 284 288 288 286 282 278 274 268 268 269 270 271 272 273 273 271 268 264 258 255 256 255 257 262 266 268 271 270 261 269 280 276 270 265 263 270 279 287 293 293 290 288 285 282 279 275 270 266 263 258 251 248 245 245 244 245 249 255 260 261 260 257 254 250 244 242
263 259 251 233 220 219 221 224 228 230 235 239 243 249 255 262 269 273 278 283 287 285 281 276 272 266 262 263 265 266 268 271 270 268 266 262 256 251 251 255 256 259 266 271 271 272 269 257 263 278 281 271 261 259 266 275 282 287 288 286 283 281 278 275 272 268 266 265 262 256 251 249 246 245 244 245 247 251 255 257 257 255 254 250 246
258 251 236 222 215 217 220 223 225 229 233 238 243 249 256 262 267 271 276 281 281 279 274 269 264 260 258 259 261 266 271 270 267 264 261 256 250 246 249 254 259 266 273 274 272 273 268 250 259 277 279 270 262 260 268 274 279 283 283 279 275 273 272 272 271 268 265 264 266 263 257 252 249 246 245 244 243 246 250 254 256 257 257 257 256
251 244 231 220 216 216 220 222 224 229 232 238 244 249 255 260 264 269 273 276 272 270 266 259 257 258 259 258 261 269 270 265 260 260 256 250 245 244 248 253 263 272 278 278 272 269 259 244 262 275 274 269 263 262 268 273 278 279 275 270 268 269 271 272 270 266 265 268 271 270 262 256 252 249 247 245 244 246 249 252 256 259 261 263 265
246 237 227 219 216 215 218 221 224 229 233 238 244 248 252 257 262 267 269 267 260 257 256 254 257 259 259 259 262 266 261 256 256 257 253 246 242 243 247 253 263 272 277 281 276 267 249 246 264 270 269 269 265 264 270 275 276 274 270 268 269 273 274 271 267 265 267 271 274 271 264 258 255 251 249 248 247 248 250 253 257 261 264 267 268
237 229 221 215 213 214 216 221 225 229 234 239 244 245 250 256 260 264 263 258 252 249 251 253 255 257 257 258 261 259 252 254 256 254 250 244 242 243 246 254 263 269 274 277 274 267 258 257 260 262 267 268 269 273 277 278 274 271 270 271 273 272 269 265 264 264 267 268 267 266 263 258 256 253 251 250 248 249 251 254 257 261 264 266 268
231 222 216 211 208 211 215 220 224 228 234 238 241 243 248 254 255 257 258 254 249 244 245 248 250 250 254 258 259 254 250 252 254 251 247 244 243 243 246 254 262 267 269 270 271 269 266 266 264 266 269 271 276 281 281 279 276 274 274 274 272 268 266 265 263 261 261 261 261 262 261 258 257 255 253 252 250 248 249 252 254 258 262 265 267
224 217 211 210 208 212 218 221 224 227 233 236 239 243 247 250 249 252 254 252 247 243 244 249 253 250 252 259 258 252 249 248 247 244 245 244 243 243 247 253 259 263 262 259 263 266 267 268 269 269 271 275 280 281 281 281 280 279 278 277 275 273 273 269 264 259 256 257 259 260 260 259 258 256 254 254 252 249 247 249 251 254 257 261 264
203 206 209 213 212 213 219 220 221 225 230 234 240 244 244 244 244 246 249 248 245 243 244 247 248 244 247 255 255 252 247 242 237 239 246 247 244 243 247 253 256 258 252 249 256 261 263 265 266 268 272 276 279 281 281 282 280 280 281 282 282 282 280 272 264 258 255 256 257 258 258 258 257 257 256 254 253 249 247 247 248 250 252 255 259
199 207 208 211 214 215 216 215 219 226 232 237 243 245 241 237 237 241 246 246 242 241 244 244 238 233 237 246 252 250 243 237 236 242 248 245 240 241 247 250 250 246 241 244 251 257 261 262 264 267 271 275 279 281 281 279 280 282 284 284 282 281 278 269 260 256 255 255 254 254 255 257 257 257 257 255 254 251 248 246 246 248 249 251 254
208 217 213 215 220 218 211 216 228 234 237 240 245 246 241 238 239 242 245 245 241 239 242 243 238 234 238 246 249 244 238 238 240 243 244 238 237 242 244 241 237 233 235 241 249 255 259 260 264 267 271 275 278 281 281 282 283 284 286 285 281 277 272 264 258 256 257 254 250 251 253 256 257 256 256 257 256 255 252 249 248 249 250 252 254
215 229 226 220 218 210 210 223 235 239 242 244 247 245 240 238 241 243 245 244 240 238 240 241 241 241 242 244 241 239 240 242 241 240 238 236 241 244 240 234 231 232 237 242 245 249 254 258 262 266 269 274 277 279 281 285 286 287 290 288 284 277 271 266 261 260 258 253 248 251 255 257 258 257 258 259 258 258 257 255 252 251 253 256 258
250 276 266 204 186 188 200 214 223 233 238 239 239 237 239 241 243 244 243 240 235 235 240 242 242 242 240 238 240 243 244 242 238 236 235 237 244 244 238 232 230 235 242 242 241 246 251 255 258 261 266 270 273 274 277 286 292 295 296 294 289 281 274 268 261 259 256 251 248 251 254 257 262 262 262 263 262 260 259 257 253 251 256 261 264
260 273 277 271 207 174 185 204 217 230 237 235 231 235 249 252 249 246 241 236 231 232 237 241 242 242 242 242 245 246 242 238 236 236 237 242 246 244 235 226 228 239 243 241 242 245 246 246 250 255 263 267 267 268 274 288 297 299 300 297 292 285 279 271 264 259 252 248 249 252 254 258 266 268 266 267 267 263 260 256 250 249 257 265 268
278 282 281 286 291 275 269 275 250 243 251 241 229 238 252 251 249 242 235 231 230 231 235 239 242 242 244 244 244 241 237 236 237 241 245 249 250 242 227 220 229 239 239 239 241 241 239 240 246 254 261 264 263 266 277 292 297 300 299 294 291 290 286 277 267 258 247 250 253 252 255 259 264 270 270 274 276 271 265 257 250 250 260 268 272
303 302 300 298 293 285 277 278 272 261 276 251 216 226 248 247 242 233 227 227 229 232 234 237 239 240 240 238 237 236 236 240 245 249 252 253 248 235 222 222 230 233 232 235 236 236 236 238 244 251 256 259 261 268 281 290 294 302 298 292 293 293 294 282 263 247 239 252 255 245 251 257 262 272 278 283 285 279 271 261 254 257 265 272 276
325 321 323 314 287 272 263 260 248 243 282 258 224 228 252 246 237 231 228 228 231 233 233 235 235 235 236 236 239 241 245 249 251 253 252 249 239 227 224 227 229 228 229 231 231 233 234 236 240 244 247 251 256 264 273 279 288 297 295 293 290 286 296 290 258 239 234 246 249 239 248 258 265 274 284 288 285 282 278 270 264 266 270 274 276
339 324 324 325 267 238 240 238 225 220 245 247 241 247 251 243 237 234 230 230 233 233 233 234 234 236 240 243 247 250 252 251 249 246 242 236 229 226 230 230 227 225 226 227 230 234 235 234 235 236 239 241 247 255 262 268 274 284 288 290 285 277 288 289 260 245 242 247 245 236 246 260 268 274 280 283 283 287 286 279 274 273 274 275 276
317 271 273 272 153 168 197 203 201 206 218 234 250 258 248 244 241 237 234 233 234 235 236 237 239 242 245 249 252 253 251 247 241 235 230 227 226 230 235 231 226 223 223 225 232 238 238 236 233 232 233 234 239 246 252 259 262 269 275 278 275 273 281 284 268 256 254 257 257 249 248 256 264 269 273 276 279 280 278 276 275 273 274 278 281
192 197 197 202 194 176 187 194 191 196 207 225 244 245 239 244 243 242 242 241 239 238 239 239 242 244 247 250 250 249 247 242 236 230 226 225 226 231 233 228 225 222 222 227 234 239 238 235 233 231 231 232 234 238 242 250 254 258 260 261 263 267 273 277 271 260 258 265 271 272 266 259 259 263 271 275 278 278 277 276 275 274 278 282 285
201 206 206 205 208 202 199 201 197 198 203 216 233 237 238 238 237 241 243 244 244 240 238 238 241 244 247 248 246 243 240 237 232 228 225 224 226 229 229 226 224 223 224 228 232 233 233 231 231 229 230 230 231 233 236 242 245 246 247 246 249 254 258 262 263 259 259 267 273 278 279 275 271 274 278 280 282 284 283 281 280 282 285 286 285
207 208 212 213 215 213 210 207 203 201 201 212 226 231 231 229 228 232 237 240 241 239 237 237 238 241 244 243 239 235 233 231 227 224 223 223 225 226 225 225 224 224 226 227 229 231 232 232 232 229 228 228 230 231 233 236 239 239 238 237 238 241 244 245 248 250 254 260 266 273 278 281 282 283 285 284 286 286 286 286 286 288 289 286 284
209 206 210 214 217 217 216 213 208 205 207 213 220 223 225 224 225 229 234 237 237 236 236 236 236 237 234 229 226 227 227 226 224 222 222 222 223 223 223 223 224 226 227 228 232 235 236 236 235 234 231 230 231 232 233 235 237 238 237 234 233 234 236 237 240 244 249 255 261 267 273 277 280 280 281 281 282 283 283 283 283 284 285 285 284
210 210 213 213 214 215 216 216 213 211 213 217 221 223 225 226 228 232 235 236 236 236 235 236 234 228 222 218 217 219 220 221 221 222 222 223 222 221 221 223 224 227 230 234 237 239 240 237 234 233 232 231 232 234 235 238 240 242 242 241 237 233 232 234 239 244 248 253 258 266 273 277 278 279 279 279 279 280 280 279 279 281 284 287 288
212 213 216 215 214 215 216 217 217 218 220 224 227 228 229 230 233 237 239 241 241 241 239 235 229 222 222 222 221 220 218 218 220 222 223 224 222 221 222 225 228 231 234 237 240 242 242 240 237 233 231 231 232 234 236 238 242 244 246 248 246 241 237 237 241 244 248 251 255 261 266 270 273 275 275 276 279 281 281 280 281 283 286 288 291
215 221 221 220 220 218 219 219 219 221 224 228 230 232 234 236 237 240 244 247 248 247 244 236 228 225 227 229 229 228 226 225 224 224 225 224 222 221 223 228 232 234 236 238 240 241 242 241 240 237 234 232 232 235 237 238 240 243 246 247 248 247 244 243 244 244 248 252 254 255 257 260 263 266 268 271 274 278 282 283 284 285 286 287 290
222 230 226 223 223 222 223 223 222 224 227 230 232 234 237 238 241 244 246 246 245 245 244 240 235 233 234 235 235 234 232 229 227 226 225 223 222 223 226 231 233 235 237 238 239 241 243 244 243 241 239 236 235 237 239 239 240 243 245 246 247 248 247 246 247 246 247 250 253 255 256 258 261 264 266 268 270 274 278 281 283 285 286 287 288
229 233 226 223 223 223 223 224 224 224 226 230 231 233 235 237 241 244 245 243 241 239 240 240 240 239 238 238 239 238 235 232 229 227 225 223 222 223 226 229 231 233 236 238 239 241 244 246 247 246 243 241 240 240 242 243 243 244 246 247 248 248 247 247 247 246 246 249 255 258 259 261 263 265 267 268 270 272 275 279 282 285 287 288 289
229 229 223 220 220 221 221 222 224 224 226 229 230 231 234 236 238 240 239 237 237 237 238 239 240 239 238 237 238 238 235 232 229 228 226 225 224 224 225 226 227 230 234 237 240 242 243 245 247 248 247 246 245 244 246 248 249 250 251 251 250 248 247 246 246 246 247 249 253 257 259 259 261 262 264 267 270 272 275 279 283 286 287 290 292
224 225 221 218 218 220 220 222 223 222 223 226 229 232 236 239 241 241 238 236 237 238 237 239 240 239 237 236 236 236 235 233 228 227 227 226 224 224 224 224 224 227 231 234 238 241 243 244 247 250 252 252 251 250 251 253 255 256 257 256 254 252 249 247 248 249 250 251 253 255 257 258 260 263 265 267 270 272 275 278 281 284 286 290 293
Height
5870 5870 5870 5870 5870 5870 5870 5870 5870 5871 5872 5871 5871 5871 5870 5870 5870 5869 5868 5868 5868 5867 5866 5866 5865 5865 5865 5865 5864 5864 5863 5862 5862 5861 5861 5860 5860 5859 5859 5858 5857 5857 5857 5856 5856 5855 5854 5854 5854 5853 5852 5852 5852 5851 5851 5851 5850 5850 5849 5849 5849 5849 5849 5849 5849 5849 5849 5849 5849 5849 5849 5849 5849 5849 5850 5850 5850 5851 5851 5851 5851 5851 5851 5851 5851
5868 5868 5868 5869 5869 5869 5868 5869 5869 5870 5870 5870 5870 5870 5869 5869 5869 5868 5868 5868 5867 5866 5866 5865 5865 5864 5864 5864 5864 5863 5862 5862 5861 5861 5860 5859 5859 5858 5858 5858 5857 5856 5856 5856 5855 5855 5854 5853 5853 5852 5852 5852 5851 5851 5850 5850 5850 5849 5849 5849 5849 5849 5849 5849 5849 5849 5849 5849 5849 5849 5849 5849 5849 5849 5850 5850 5850 5850 5851 5851 5851 5851 5851 5851 5851
5866 5867 5867 5867 5868 5867 5867 5868 5868 5869 5869 5869 5869 5869 5868 5868 5868 5867 5867 5867 5866 5865 5865 5864 5864 5863 5863 5863 5863 5862 5862 5861 5861 5860 5860 5859 5858 5858 5858 5857 5856 5856 5856 5855 5855 5854 5853 5853 5852 5852 5852 5851 5851 5851 5850 5850 5850 5849 5849 5849 5849 5849 5849 5849 5849 5849 5849 5849 5849 5849 5849 5849 5849 5849 5850 5850 5850 5851 5851 5851 5852 5852 5852 5852 5852
5864 5865 5865 5866 5866 5866 5866 5867 5867 5868 5868 5868 5868 5867 5867 5867 5866 5866 5866 5865 5865 5864 5864 5863 5863 5863 5862 5862 5862 5862 5861 5860 5860 5860 5859 5858 5857 5857 5857 5857 5856 5855 5855 5855 5854 5854 5853 5852 5852 5852 5852 5851 5851 5851 5850 5850 5849 5849 5849 5849 5849 5849 5849 5849 5849 5849 5848 5849 5849 5849 5848 5849 5849 5849 5850 5850 5851 5851 5851 5852 5852 5852 5852 5852 5852
5862 5863 5863 5864 5864 5864 5865 5865 5866 5866 5867 5867 5867 5866 5866 5865 5865 5865 5864 5864 5864 5863 5863 5863 5862 5862 5861 5861 5861 5861 5861 5860 5859 5859 5858 5857 5857 5857 5857 5856 5855 5855 5855 5854 5854 5853 5852 5852 5851 5851 5851 5851 5851 5850 5850 5849 5849 5849 5849 5849 5849 5849 5849 5849 5849 5849 5849 5848 5849 5849 5849 5849 5849 5849 5849 5850 5850 5851 5851 5852 5852 5852 5852 5852 5852
5861 5861 5862 5862 5862 5862 5863 5864 5865 5865 5865 5866 5865 5865 5865 5864 5864 5863 5863 5863 5863 5862 5862 5862 5861 5861 5860 5860 5860 5860 5860 5859 5858 5858 5857 5856 5856 5856 5856 5856 5855 5854 5854 5854 5853 5853 5852 5851 5851 5851 5851 5851 5850 5850 5850 5849 5849 5849 5849 5849 5849 5849 5849 5849 5849 5849 5849 5849 5849 5849 5849 5849 5849 5849 5850 5850 5850 5851 5851 5852 5852 5852 5852 5853 5852
5859 5859 5860 5860 5860 5861 5862 5862 5863 5864 5864 5864 5864 5863 5863 5863 5862 5862 5862 5862 5861 5861 5861 5861 5860 5860 5860 5860 5860 5859 5859 5858 5858 5857 5856 5856 5856 5855 5855 5855 5854 5854 5854 5853 5853 5852 5852 5851 5850 5850 5851 5851 5850 5850 5850 5849 5849 5849 5849 5849 5849 5848 5849 5849 5849 5848 5848 5849 5849 5849 5849 5849 5849 5849 5850 5850 5850 5851 5851 5851 5852 5852 5852 5853 5853
5857 5857 5857 5858 5858 5859 5860 5860 5861 5861 5862 5862 5862 5861 5861 5861 5861 5860 5860 5860 5860 5860 5860 5860 5860 5860 5860 5859 5859 5858 5857 5857 5857 5857 5856 5855 5855 5855 5854 5854 5854 5853 5853 5853 5853 5852 5851 5851 5850 5850 5851 5851 5850 5850 5850 5850 5849 5849 5849 5849 5849 5848 5848 5848 5848 5848 5848 5848 5849 5849 5849 5849 5849 5849 5850 5850 5850 5851 5851 5851 5852 5852 5852 5853 5853
5855 5855 5855 5855 5856 5857 5857 5858 5859 5859 5860 5860 5859 5859 5859 5859 5859 5859 5858 5858 5858 5858 5858 5859 5859 5859 5859 5858 5857 5857 5856 5856 5856 5856 5855 5854 5854 5854 5854 5853 5853 5853 5853 5852 5852 5852 5851 5850 5849 5849 5850 5851 5850 5849 5849 5849 5849 5849 5849 5849 5849 5848 5848 5848 5848 5848 5848 5848 5848 5849 5849 5849 5849 5850 5850 5850 5850 5851 5851 5851 5852 5852 5852 5853 5853
5852 5852 5853 5853 5853 5854 5855 5856 5857 5857 5857 5857 5857 5857 5857 5857 5857 5857 5857 5857 5857 5857 5857 5857 5858 5858 5858 5857 5856 5855 5855 5855 5855 5854 5854 5853 5853 5853 5853 5852 5852 5852 5852 5852 5852 5851 5851 5850 5849 5849 5850 5851 5850 5849 5849 5849 5849 5849 5849 5849 5849 5848 5848 5848 5848 5848 5848 5848 5848 5848 5849 5849 5849 5849 5850 5850 5850 5851 5851 5851 5852 5852 5852 5853 5853
5850 5850 5850 5850 5851 5852 5853 5854 5855 5855 5855 5854 5854 5854 5854 5855 5855 5855 5855 5855 5855 5855 5856 5856 5856 5856 5856 5855 5855 5854 5854 5854 5853 5853 5853 5852 5852 5852 5852 5852 5852 5851 5851 5851 5851 5851 5851 5850 5849 5848 5849 5850 5850 5850 5849 5849 5849 5849 5849 5849 5848 5848 5848 5848 5847 5847 5847 5848 5848 5848 5848 5849 5849 5849 5849 5850 5850 5851 5851 5851 5852 5852 5852 5852 5853
5847 5847 5847 5847 5848 5849 5851 5851 5852 5852 5852 5851 5851 5852 5852 5852 5853 5853 5853 5853 5853 5854 5854 5854 5855 5855 5854 5854 5853 5853 5852 5852 5852 5852 5851 5851 5851 5851 5851 5851 5851 5851 5851 5851 5851 5851 5851 5850 5849 5848 5848 5849 5850 5850 5849 5848 5849 5849 5849 5848 5848 5848 5848 5848 5847 5847 5847 5847 5848 5848 5848 5848 5848 5849 5849 5849 5849 5850 5851 5851 5851 5851 5852 5852 5853
5843 5844 5844 5845 5846 5847 5848 5849 5849 5849 5849 5849 5849 5849 5850 5850 5851 5851 5852 5852 5852 5852 5853 5853 5853 5853 5853 5852 5852 5852 5851 5851 5851 5850 5850 5849 5849 5849 5849 5849 5849 5849 5850 5850 5851 5851 5851 5850 5849 5848 5847 5848 5849 5849 5849 5848 5848 5849 5849 5848 5847 5847 5847 5847 5847 5847 5847 5847 5847 5847 5847 5848 5848 5848 5848 5849 5849 5849 5850 5850 5851 5851 5851 5852 5852
5840 5841 5842 5842 5844 5845 5846 5846 5846 5846 5847 5847 5847 5848 5848 5849 5849 5850 5850 5850 5851 5851 5851 5852 5852 5852 5851 5851 5850 5850 5850 5849 5849 5848 5848 5847 5847 5848 5848 5848 5848 5848 5849 5849 5850 5851 5851 5850 5850 5848 5847 5848 5848 5848 5849 5848 5848 5848 5848 5848 5847 5847 5847 5847 5847 5847 5847 5847 5847 5847 5847 5847 5847 5848 5848 5848 5848 5849 5849 5850 5850 5850 5850 5851 5852
5838 5838 5839 5840 5841 5842 5843 5843 5843 5844 5844 5845 5845 5846 5847 5847 5848 5848 5848 5849 5849 5850 5850 5850 5850 5850 5850 5849 5849 5849 5848 5848 5848 5847 5846 5846 5845 5846 5846 5846 5847 5847 5847 5848 5849 5850 5850 5850 5850 5849 5848 5847 5847 5847 5848 5848 5847 5847 5847 5847 5847 5846 5846 5846 5847 5847 5847 5847 5847 5846 5846 5847 5847 5847 5847 5848 5848 5848 5848 5849 5849 5850 5850 5850 5851
5835 5836 5836 5837 5838 5839 5840 5840 5841 5842 5842 5843 5844 5844 5845 5846 5846 5846 5847 5847 5848 5848 5848 5849 5848 5848 5848 5847 5847 5847 5847 5846 5846 5845 5844 5844 5844 5844 5844 5845 5845 5846 5846 5847 5848 5849 5850 5850 5850 5849 5848 5846 5846 5846 5846 5846 5846 5846 5846 5846 5846 5846 5846 5846 5846 5846 5846 5846 5846 5846 5846 5846 5846 5847 5847 5847 5847 5847 5848 5848 5849 5849 5849 5850 5850
5833 5833 5833 5834 5835 5836 5837 5837 5839 5840 5840 5841 5841 5842 5843 5844 5844 5844 5845 5845 5846 5846 5846 5846 5846 5846 5846 5846 5846 5846 5845 5845 5844 5844 5843 5842 5842 5842 5843 5843 5844 5844 5845 5846 5847 5848 5849 5850 5850 5849 5848 5847 5845 5845 5845 5845 5845 5845 5845 5845 5845 5846 5846 5845 5845 5845 5845 5845 5845 5846 5846 5846 5846 5846 5847 5847 5847 5847 5847 5847 5848 5848 5849 5849 5850
5831 5831 5831 5832 5832 5833 5834 5835 5836 5837 5837 5838 5839 5840 5841 5841 5842 5842 5843 5844 5844 5844 5844 5844 5844 5844 5844 5844 5844 5844 5843 5843 5842 5842 5841 5840 5840 5840 5841 5842 5842 5843 5844 5845 5846 5847 5848 5849 5849 5849 5848 5847 5845 5844 5843 5844 5844 5844 5844 5844 5845 5845 5845 5845 5845 5844 5844 5844 5845 5845 5845 5846 5846 5846 5846 5846 5846 5846 5846 5847 5847 5847 5848 5848 5849
5829 5828 5828 5829 5829 5830 5831 5832 5833 5834 5835 5836 5837 5838 5839 5839 5839 5841 5842 5842 5842 5842 5842 5842 5842 5842 5842 5842 5841 5841 5841 5841 5840 5840 5839 5839 5839 5839 5839 5840 5841 5841 5842 5843 5844 5846 5847 5848 5848 5848 5848 5847 5845 5844 5843 5843 5843 5844 5844 5844 5844 5844 5844 5844 5844 5843 5843 5843 5844 5844 5845 5845 5845 5845 5846 5846 5846 5846 5846 5846 5846 5847 5847 5847 5848
5825 5825 5825 5826 5826 5827 5828 5829 5830 5831 5832 5833 5835 5835 5836 5837 5838 5839 5840 5840 5840 5840 5840 5840 5840 5840 5840 5839 5839 5839 5839 5839 5838 5838 5838 5838 5838 5838 5838 5839 5839 5840 5841 5842 5843 5844 5845 5846 5847 5847 5847 5847 5845 5844 5842 5842 5842 5843 5843 5843 5843 5843 5843 5843 5843 5843 5843 5843 5843 5843 5843 5844 5844 5845 5845 5845 5845 5846 5846 5846 5846 5846 5846 5846 5847
5822 5823 5823 5823 5823 5824 5825 5827 5827 5828 5830 5831 5832 5833 5833 5835 5836 5837 5838 5838 5838 5838 5838 5838 5838 5838 5837 5837 5837 5836 5836 5836 5837 5837 5837 5837 5837 5836 5836 5837 5838 5838 5839 5840 5842 5843 5844 5845 5845 5846 5846 5846 5845 5844 5842 5841 5841 5842 5843 5842 5842 5842 5842 5842 5842 5842 5842 5842 5842 5842 5842 5843 5843 5844 5844 5844 5845 5845 5845 5845 5845 5845 5845 5846 5846
5819 5820 5820 5820 5820 5821 5823 5824 5825 5826 5827 5829 5830 5830 5831 5833 5834 5835 5835 5836 5836 5836 5836 5836 5835 5835 5835 5835 5834 5834 5834 5834 5835 5835 5835 5835 5835 5835 5835 5836 5836 5837 5838 5839 5840 5842 5843 5844 5844 5844 5845 5845 5844 5843 5842 5841 5841 5841 5841 5842 5841 5841 5840 5840 5840 5841 5841 5841 5841 5842 5842 5842 5842 5843 5843 5843 5844 5844 5844 5844 5844 5844 5845 5845 5845
5815 5816 5816 5816 5817 5818 5820 5821 5822 5823 5825 5826 5827 5828 5829 5831 5832 5833 5833 5833 5834 5833 5833 5833 5833 5833 5833 5833 5832 5832 5832 5833 5833 5833 5833 5834 5834 5834 5834 5835 5835 5836 5837 5837 5839 5840 5841 5842 5842 5843 5843 5844 5844 5843 5841 5840 5840 5840 5840 5840 5840 5839 5839 5838 5839 5839 5840 5840 5840 5841 5841 5841 5841 5841 5842 5842 5843 5843 5843 5843 5843 5844 5844 5844 5845
5812 5813 5814 5813 5814 5815 5816 5818 5819 5821 5822 5824 5825 5826 5828 5829 5830 5831 5831 5831 5831 5831 5831 5831 5831 5831 5831 5831 5831 5831 5831 5831 5831 5831 5832 5832 5832 5833 5833 5834 5834 5835 5835 5836 5837 5838 5839 5839 5840 5841 5842 5843 5843 5842 5841 5839 5838 5839 5839 5839 5838 5838 5837 5837 5837 5838 5838 5838 5839 5840 5840 5840 5840 5840 5841 5841 5841 5842 5842 5842 5842 5843 5843 5844 5844
5809 5810 5811 5812 5812 5813 5815 5816 5818 5819 5820 5821 5823 5824 5826 5827 5828 5828 5828 5828 5828 5828 5828 5828 5829 5829 5829 5829 5829 5829 5829 5829 5830 5830 5830 5830 5831 5832 5833 5833 5834 5834 5834 5834 5835 5835 5836 5837 5838 5839 5840 5841 5842 5841 5840 5838 5837 5837 5837 5837 5836 5836 5836 5836 5836 5836 5837 5837 5838 5839 5839 5839 5839 5839 5840 5840 5840 5841 5841 5841 5841 5842 5843 5843 5844
5804 5805 5808 5810 5811 5812 5814 5815 5816 5817 5818 5819 5821 5823 5824 5825 5825 5825 5825 5826 5826 5826 5826 5826 5827 5827 5828 5828 5828 5828 5828 5828 5828 5828 5829 5829 5830 5831 5832 5832 5833 5833 5833 5833 5833 5834 5834 5835 5836 5837 5838 5839 5839 5839 5838 5837 5836 5835 5835 5835 5835 5835 5835 5834 5834 5834 5836 5837 5837 5837 5837 5837 5838 5838 5838 5839 5839 5839 5840 5840 5841 5842 5842 5842 5843
5800 5801 5803 5806 5808 5810 5812 5812 5814 5815 5816 5818 5820 5821 5822 5822 5822 5823 5823 5823 5823 5823 5824 5824 5825 5825 5826 5826 5827 5826 5826 5826 5827 5827 5827 5828 5829 5830 5831 5831 5831 5832 5832 5832 5832 5832 5832 5832 5833 5834 5835 5836 5837 5837 5837 5836 5835 5834 5834 5834 5834 5834 5833 5832 5832 5833 5835 5835 5835 5835 5835 5835 5836 5836 5837 5837 5838 5838 5839 5839 5840 5841 5841 5841 5842
5794 5795 5798 5802 5805 5807 5809 5810 5811 5813 5814 5816 5818 5819 5819 5820 5820 5821 5821 5821 5821 5821 5822 5822 5823 5823 5824 5825 5825 5825 5825 5825 5825 5826 5826 5827 5828 5829 5829 5830 5830 5830 5830 5830 5830 5830 5830 5830 5831 5831 5832 5833 5834 5835 5835 5834 5833 5832 5832 5832 5832 5832 5831 5831 5831 5832 5833 5833 5833 5833 5833 5833 5834 5835 5835 5836 5836 5837 5838 5838 5839 5839 5840 5840 5840
5789 5790 5795 5798 5801 5804 5806 5807 5810 5811 5813 5814 5815 5816 5817 5817 5818 5819 5819 5819 5819 5819 5820 5821 5821 5822 5823 5823 5824 5824 5824 5824 5824 5824 5825 5825 5826 5827 5828 5829 5829 5829 5829 5829 5829 5829 5829 5829 5829 5829 5830 5831 5832 5833 5833 5832 5832 5831 5830 5831 5831 5831 5830 5830 5830 5831 5831 5831 5831 5831 5831 5832 5832 5833 5833 5834 5834 5835 5836 5836 5837 5838 5838 5838 5839
5788 5790 5795 5797 5799 5802 5803 5806 5808 5809 5811 5811 5812 5813 5814 5815 5815 5816 5817 5817 5817 5817 5818 5819 5820 5820 5821 5822 5822 5823 5822 5822 5822 5823 5823 5824 5825 5826 5827 5827 5828 5828 5828 5828 5828 5828 5828 5827 5828 5828 5829 5830 5830 5830 5831 5831 5830 5830 5829 5829 5829 5829 5829 5829 5829 5829 5830 5830 5829 5829 5829 5830 5831 5831 5832 5832 5832 5833 5834 5835 5836 5836 5837 5837 5837
5789 5790 5793 5794 5797 5801 5802 5805 5806 5807 5809 5809 5810 5811 5812 5813 5813 5813 5814 5814 5815 5815 5816 5816 5817 5818 5819 5820 5820 5821 5821 5821 5821 5821 5822 5822 5824 5824 5825 5826 5826 5827 5827 5827 5827 5826 5826 5826 5826 5827 5827 5828 5828 5829 5829 5829 5829 5828 5827 5827 5828 5827 5827 5827 5828 5828 5828 5828 5828 5828 5828 5829 5829 5830 5830 5830 5831 5831 5832 5833 5834 5835 5835 5836 5836
5791 5793 5794 5795 5798 5801 5802 5805 5806 5807 5807 5808 5808 5809 5810 5811 5811 5811 5812 5813 5813 5813 5814 5814 5815 5815 5817 5817 5818 5819 5819 5820 5820 5820 5820 5821 5822 5823 5824 5824 5825 5825 5825 5825 5825 5825 5825 5825 5825 5825 5826 5826 5827 5827 5827 5827 5827 5827 5826 5826 5826 5826 5826 5826 5826 5827 5827 5827 5826 5826 5827 5828 5828 5828 5828 5829 5829 5830 5830 5831 5832 5833 5834 5834 5835
5793 5795 5796 5797 5799 5801 5803 5805 5806 5806 5806 5806 5806 5806 5808 5809 5809 5809 5810 5811 5811 5812 5812 5812 5812 5813 5814 5815 5816 5817 5818 5818 5818 5818 5819 5820 5821 5822 5822 5823 5823 5824 5824 5824 5824 5823 5823 5823 5824 5824 5825 5825 5825 5825 5825 5825 5825 5825 5825 5825 5824 5824 5824 5825 5825 5825 5825 5825 5825 5826 5826 5827 5827 5827 5827 5828 5828 5829 5829 5830 5831 5832 5832 5833 5833
5792 5794 5796 5798 5799 5801 5802 5803 5803 5803 5803 5803 5804 5805 5806 5807 5807 5808 5809 5809 5810 5810 5811 5811 5810 5811 5812 5813 5815 5816 5816 5816 5816 5817 5818 5819 5820 5820 5821 5821 5822 5822 5823 5823 5823 5822 5822 5822 5823 5823 5824 5824 5824 5824 5824 5824 5824 5824 5824 5823 5823 5823 5823 5823 5823 5823 5823 5824 5825 5825 5825 5825 5826 5826 5826 5826 5827 5827 5828 5829 5829 5830 5831 5832 5832
5791 5793 5796 5798 5800 5801 5801 5801 5801 5801 5801 5801 5802 5805 5805 5805 5805 5806 5807 5808 5808 5808 5809 5809 5809 5810 5811 5812 5813 5814 5814 5814 5815 5815 5816 5817 5818 5818 5819 5819 5820 5821 5821 5821 5821 5821 5821 5822 5822 5822 5823 5823 5823 5823 5823 5823 5823 5823 5823 5823 5822 5822 5822 5822 5822 5822 5822 5823 5824 5824 5823 5823 5824 5824 5825 5825 5825 5825 5826 5827 5828 5829 5830 5830 5830
5790 5792 5794 5796 5799 5800 5801 5801 5801 5801 5800 5800 5801 5804 5804 5803 5803 5804 5806 5807 5806 5807 5807 5807 5808 5808 5809 5811 5812 5812 5813 5813 5813 5814 5814 5815 5816 5816 5817 5818 5819 5819 5820 5820 5820 5820 5821 5821 5821 5821 5821 5822 5822 5822 5822 5823 5822 5822 5822 5822 5822 5822 5822 5821 5821 5821 5822 5823 5823 5822 5821 5822 5822 5823 5824 5823 5823 5824 5825 5826 5827 5828 5828 5829 5829
5790 5791 5792 5794 5796 5798 5799 5800 5800 5800 5799 5800 5801 5802 5803 5802 5802 5803 5805 5805 5805 5805 5806 5806 5806 5807 5808 5809 5810 5811 5812 5812 5812 5812 5813 5814 5814 5815 5816 5817 5818 5818 5819 5819 5819 5819 5820 5821 5821 5821 5820 5820 5821 5821 5821 5822 5822 5821 5821 5822 5822 5822 5821 5821 5820 5821 5821 5822 5822 5822 5821 5821 5822 5822 5822 5822 5822 5823 5824 5825 5826 5826 5827 5828 5828
5789 5790 5791 5792 5794 5796 5797 5798 5798 5798 5798 5799 5799 5801 5802 5801 5802 5802 5803 5803 5803 5804 5804 5805 5805 5806 5807 5808 5809 5810 5810 5810 5810 5811 5811 5812 5813 5814 5815 5816 5816 5817 5818 5818 5818 5818 5819 5820 5820 5820 5820 5820 5820 5820 5820 5821 5821 5821 5821 5821 5821 5821 5821 5821 5820 5820 5821 5820 5821 5822 5821 5821 5822 5822 5822 5821 5821 5822 5824 5824 5825 5826 5826 5827 5827
5789 5790 5790 5791 5792 5793 5794 5796 5796 5796 5797 5798 5797 5799 5800 5800 5800 5801 5801 5802 5802 5803 5804 5804 5804 5805 5806 5807 5808 5808 5808 5808 5808 5809 5809 5810 5811 5812 5813 5814 5815 5816 5816 5817 5817 5817 5818 5818 5818 5818 5819 5819 5819 5819 5819 5820 5820 5820 5820 5821 5821 5821 5821 5820 5820 5819 5819 5819 5820 5822 5821 5820 5821 5821 5821 5821 5821 5822 5823 5824 5824 5825 5825 5826 5826
5788 5789 5789 5790 5791 5792 5793 5794 5795 5795 5796 5797 5797 5797 5798 5798 5798 5799 5800 5800 5801 5802 5803 5803 5803 5804 5804 5805 5806 5806 5806 5806 5807 5807 5808 5808 5810 5811 5812 5813 5813 5814 5815 5816 5816 5816 5817 5817 5817 5817 5817 5818 5818 5818 5818 5819 5819 5820 5820 5820 5820 5820 5820 5820 5820 5819 5819 5819 5819 5820 5821 5820 5820 5821 5821 5821 5821 5822 5822 5823 5824 5824 5824 5825 5825
5787 5787 5788 5789 5789 5790 5791 5792 5793 5793 5794 5795 5795 5796 5796 5797 5797 5798 5798 5799 5800 5801 5801 5802 5802 5802 5803 5804 5804 5804 5804 5804 5805 5805 5806 5807 5808 5809 5810 5811 5812 5813 5814 5814 5814 5814 5815 5816 5816 5816 5816 5816 5817 5817 5817 5818 5818 5819 5819 5820 5820 5820 5820 5820 5820 5819 5819 5819 5819 5819 5820 5820 5820 5821 5821 5821 5821 5821 5821 5822 5823 5823 5824 5824 5824
5785 5786 5786 5787 5788 5789 5790 5790 5791 5792 5792 5793 5793 5794 5795 5795 5796 5796 5797 5798 5799 5799 5800 5800 5800 5800 5801 5802 5802 5802 5803 5803 5803 5804 5805 5806 5807 5808 5809 5810 5810 5811 5812 5813 5813 5813 5814 5814 5814 5814 5815 5815 5815 5816 5816 5817 5817 5817 5818 5818 5819 5819 5819 5819 5819 5819 5819 5819 5818 5818 5818 5819 5819 5820 5820 5820 5820 5820 5821 5821 5821 5822 5822 5822 5822
5784 5784 5785 5785 5786 5787 5788 5789 5789 5790 5791 5791 5792 5792 5793 5794 5794 5795 5795 5796 5797 5797 5798 5798 5798 5799 5799 5799 5800 5800 5801 5801 5802 5803 5804 5805 5806 5807 5808 5808 5809 5810 5811 5811 5812 5812 5812 5812 5813 5813 5813 5813 5814 5815 5815 5815 5816 5816 5817 5817 5818 5818 5818 5819 5819 5819 5819 5818 5818 5818 5818 5818 5818 5818 5818 5819 5819 5819 5820 5820 5820 5820 5821 5821 5821
5783 5783 5783 5784 5784 5785 5786 5786 5787 5788 5788 5789 5790 5791 5792 5792 5792 5793 5793 5794 5795 5795 5796 5796 5797 5797 5797 5798 5798 5799 5799 5800 5801 5802 5803 5804 5805 5806 5806 5807 5808 5809 5810 5810 5810 5810 5811 5811 5811 5811 5812 5812 5813 5813 5814 5814 5815 5815 5815 5816 5816 5817 5817 5818 5818 5818 5818 5818 5818 5818 5817 5817 5817 5817 5817 5818 5818 5819 5819 5819 5819 5820 5820 5819 5820
5781 5781 5782 5782 5782 5783 5784 5784 5785 5786 5786 5787 5788 5789 5790 5790 5790 5791 5791 5792 5793 5793 5794 5794 5795 5796 5796 5796 5797 5797 5798 5799 5800 5801 5802 5802 5803 5804 5805 5806 5807 5808 5808 5809 5809 5809 5809 5810 5810 5810 5811 5811 5812 5812 5812 5813 5813 5814 5814 5814 5815 5815 5816 5816 5816 5817 5817 5817 5817 5817 5817 5817 5817 5816 5817 5817 5818 5818 5818 5818 5818 5819 5818 5818 5818
5779 5779 5779 5780 5780 5781 5782 5782 5783 5783 5784 5785 5786 5786 5787 5787 5788 5788 5789 5790 5791 5792 5792 5793 5794 5794 5794 5795 5796 5797 5798 5798 5799 5800 5800 5801 5802 5803 5804 5805 5806 5807 5807 5808 5808 5808 5808 5808 5809 5809 5809 5810 5810 5811 5811 5812 5812 5812 5813 5813 5813 5814 5814 5814 5815 5815 5815 5816 5816 5816 5816 5816 5816 5816 5816 5817 5817 5817 5817 5817 5817 5817 5817 5817 5817
5776 5777 5777 5777 5778 5779 5780 5780 5781 5781 5782 5782 5783 5784 5784 5785 5785 5786 5787 5788 5789 5790 5791 5792 5793 5793 5793 5794 5795 5796 5797 5797 5798 5798 5799 5800 5801 5802 5803 5804 5804 5805 5806 5806 5806 5806 5806 5807 5807 5808 5808 5809 5809 5809 5810 5810 5811 5811 5812 5812 5812 5812 5813 5813 5813 5814 5814 5814 5814 5814 5815 5815 5815 5815 5815 5816 5816 5816 5816 5815 5815 5815 5815 5815 5815
5774 5774 5775 5775 5776 5777 5777 5778 5779 5779 5779 5780 5781 5781 5782 5782 5783 5784 5785 5786 5788 5789 5790 5791 5791 5791 5792 5793 5794 5795 5796 5796 5796 5797 5798 5799 5800 5801 5801 5802 5803 5804 5804 5805 5805 5805 5805 5805 5806 5806 5807 5808 5808 5808 5808 5809 5809 5810 5810 5810 5810 5811 5811 5811 5812 5812 5813 5813 5813 5813 5813 5813 5813 5814 5814 5814 5815 5815 5814 5814 5814 5814 5813 5814 5814
5771 5772 5772 5773 5773 5774 5775 5776 5776 5776 5777 5777 5778 5779 5779 5780 5781 5782 5783 5784 5785 5787 5788 5789 5789 5789 5791 5792 5792 5793 5794 5794 5795 5796 5796 5797 5798 5799 5800 5801 5802 5802 5803 5803 5803 5803 5803 5804 5804 5805 5806 5806 5807 5807 5807 5807 5808 5808 5808 5808 5809 5809 5809 5810 5810 5811 5811 5811 5811 5811 5811 5812 5812 5812 5813 5813 5813 5813 5813 5813 5812 5812 5812 5812 5812
5768 5769 5770 5770 5771 5772 5773 5773 5773 5774 5774 5775 5775 5776 5777 5778 5779 5780 5781 5782 5783 5785 5786 5786 5787 5788 5789 5790 5791 5791 5792 5792 5793 5794 5795 5796 5797 5798 5798 5800 5800 5801 5801 5801 5802 5802 5802 5802 5803 5803 5804 5805 5805 5806 5806 5806 5806 5806 5806 5807 5807 5807 5808 5808 5808 5809 5809 5809 5809 5809 5810 5810 5810 5811 5811 5811 5811 5811 5811 5811 5811 5811 5811 5810 5810
5765 5766 5767 5768 5769 5769 5770 5770 5771 5771 5771 5772 5773 5774 5775 5776 5778 5779 5779 5780 5781 5782 5783 5783 5784 5785 5787 5788 5789 5789 5790 5791 5792 5793 5793 5794 5795 5796 5798 5799 5799 5800 5800 5800 5800 5800 5801 5801 5801 5802 5802 5803 5804 5804 5804 5804 5804 5804 5805 5805 5805 5806 5806 5806 5806 5807 5807 5808 5808 5808 5808 5808 5809 5809 5809 5809 5809 5809 5810 5810 5809 5809 5809 5809 5809